When you browse on this site, cookies collect data to enhance your experience and personalize the content and advertising you see.
Visit our Privacy Policy to learn more. By continuing to use the site, you agree to this use of cookies and data.
  • In Austria
  • List of Countries
  • For 7 days
  • Water Temperature
  • Satellite Maps
  • Weather Map
  • News
  • Weather Widgets
  • user-avatar
    Login

    Hourly Weather Bocas del Toro

    Today, 17 December, Monday

    Time Temperature Precipitation Wind Pressure Humidity
    00:00 +25°C° 0.2 mm 3 mps 760 mmHg 74%
    01:00 +25°C° 0.2 mm 3 mps 760 mmHg 77%
    02:00 +25°C° 0.1 mm 3 mps 760 mmHg 78%
    03:00 +25°C° 0.1 mm 3 mps 759 mmHg 79%
    04:00 +25°C° 0.1 mm 3 mps 759 mmHg 79%
    05:00 +25°C° 0.1 mm 3 mps 759 mmHg 79%
    06:00 +25°C° 0.1 mm 3 mps 760 mmHg 79%
    07:00 +25°C° 0.1 mm 3 mps 760 mmHg 79%
    08:00 +27°C° 0.1 mm 3 mps 760 mmHg 71%
    09:00 +30°C° 0.1 mm 3 mps 761 mmHg 62%
    10:00 +33°C° 0.1 mm 3 mps 761 mmHg 53%
    11:00 +34°C° 0.2 mm 3 mps 761 mmHg 52%
    12:00 +34°C° 0.2 mm 3 mps 760 mmHg 50%
    13:00 +35°C° 0.2 mm 3 mps 760 mmHg 49%
    14:00 +34°C° 0.1 mm 3 mps 759 mmHg 53%
    15:00 +33°C° 0.1 mm 3 mps 759 mmHg 56%
    16:00 +32°C° 0.1 mm 2 mps 758 mmHg 60%
    17:00 +30°C° 0 mm 3 mps 759 mmHg 70%
    18:00 +28°C° 0 mm 3 mps 759 mmHg 79%
    19:00 +26°C° 0 mm 3 mps 759 mmHg 89%
    20:00 +25°C° 0 mm 3 mps 759 mmHg 88%
    21:00 +25°C° 0 mm 3 mps 760 mmHg 87%
    22:00 +25°C° 0 mm 3 mps 760 mmHg 86%
    23:00 +25°C° 0 mm 3 mps 760 mmHg 82%

    Tomorrow, 18 December, Tuesday

    Time Temperature Precipitation Wind Pressure Humidity
    00:00 +24°C° 0 mm 3 mps 760 mmHg 79%
    01:00 +24°C° 0 mm 3 mps 760 mmHg 75%
    02:00 +24°C° 0 mm 3 mps 760 mmHg 76%
    03:00 +24°C° 0 mm 3 mps 759 mmHg 77%
    04:00 +24°C° 0 mm 3 mps 759 mmHg 77%
    05:00 +24°C° 0 mm 3 mps 759 mmHg 75%
    06:00 +24°C° 0 mm 3 mps 759 mmHg 72%
    07:00 +24°C° 0 mm 3 mps 759 mmHg 69%
    08:00 +27°C° 0 mm 3 mps 760 mmHg 62%
    09:00 +30°C° 0 mm 3 mps 760 mmHg 55%
    10:00 +33°C° 0 mm 3 mps 761 mmHg 49%
    11:00 +34°C° 0.1 mm 3 mps 760 mmHg 47%
    12:00 +35°C° 0.1 mm 3 mps 759 mmHg 46%
    13:00 +36°C° 0.1 mm 4 mps 759 mmHg 45%
    14:00 +35°C° 0.3 mm 4 mps 758 mmHg 49%
    15:00 +34°C° 0.3 mm 4 mps 758 mmHg 53%
    16:00 +33°C° 0.3 mm 4 mps 757 mmHg 57%
    17:00 +30°C° 0.2 mm 3 mps 758 mmHg 66%
    18:00 +28°C° 0.2 mm 3 mps 758 mmHg 76%
    19:00 +26°C° 0.2 mm 2 mps 758 mmHg 85%
    20:00 +26°C° 0.4 mm 2 mps 759 mmHg 84%
    21:00 +26°C° 0.4 mm 2 mps 760 mmHg 83%
    22:00 +25°C° 0.4 mm 2 mps 760 mmHg 82%
    23:00 +25°C° 0.2 mm 2 mps 760 mmHg 78%

    Day after tomorrow, 19 December, Wednesday

    Time Temperature Precipitation Wind Pressure Humidity
    00:00 +25°C° 0.2 mm 2 mps 760 mmHg 75%
    01:00 +25°C° 0.2 mm 3 mps 759 mmHg 71%
    02:00 +25°C° 0.1 mm 3 mps 759 mmHg 71%
    03:00 +25°C° 0.1 mm 3 mps 758 mmHg 72%
    04:00 +25°C° 0.1 mm 3 mps 758 mmHg 73%
    05:00 +25°C° 0 mm 3 mps 758 mmHg 75%
    06:00 +25°C° 0 mm 3 mps 759 mmHg 77%
    07:00 +25°C° 0 mm 3 mps 759 mmHg 78%
    08:00 +28°C° 0 mm 2 mps 759 mmHg 70%
    09:00 +30°C° 0 mm 2 mps 760 mmHg 61%
    10:00 +34°C° 0 mm 2 mps 760 mmHg 52%
    11:00 +34°C° 0 mm 2 mps 759 mmHg 51%
    12:00 +35°C° 0 mm 3 mps 759 mmHg 50%
    13:00 +35°C° 0 mm 3 mps 758 mmHg 49%
    14:00 +35°C° 0 mm 3 mps 757 mmHg 54%
    15:00 +34°C° 0 mm 3 mps 757 mmHg 58%
    16:00 +33°C° 0 mm 3 mps 756 mmHg 63%
    17:00 +30°C° 0.1 mm 3 mps 757 mmHg 72%
    18:00 +29°C° 0.1 mm 2 mps 757 mmHg 81%
    19:00 +27°C° 0.1 mm 2 mps 757 mmHg 90%
    20:00 +27°C° 0.1 mm 2 mps 758 mmHg 91%
    21:00 +27°C° 0.1 mm 2 mps 758 mmHg 91%
    22:00 +27°C° 0.1 mm 1 mps 759 mmHg 92%
    23:00 +27°C° 0.1 mm 2 mps 759 mmHg 90%

    20 December, Thursday

    Time Temperature Precipitation Wind Pressure Humidity
    00:00 +27°C° 0.1 mm 2 mps 758 mmHg 89%
    01:00 +27°C° 0.1 mm 2 mps 758 mmHg 87%
    02:00 +26°C° 0.1 mm 2 mps 758 mmHg 87%
    03:00 +26°C° 0.1 mm 2 mps 757 mmHg 86%
    04:00 +26°C° 0.1 mm 2 mps 757 mmHg 86%
    05:00 +26°C° 0.1 mm 2 mps 758 mmHg 85%
    06:00 +26°C° 0.1 mm 2 mps 758 mmHg 83%
    07:00 +26°C° 0.1 mm 2 mps 758 mmHg 82%
    08:00 +28°C° 0.2 mm 2 mps 759 mmHg 72%
    09:00 +31°C° 0.2 mm 2 mps 759 mmHg 62%
    10:00 +35°C° 0.2 mm 2 mps 760 mmHg 52%
    11:00 +35°C° 0 mm 2 mps 759 mmHg 52%
    12:00 +35°C° 0 mm 2 mps 758 mmHg 53%
    13:00 +35°C° 0 mm 3 mps 758 mmHg 53%
    14:00 +34°C° 0.1 mm 3 mps 757 mmHg 58%
    15:00 +32°C° 0.1 mm 2 mps 757 mmHg 63%
    16:00 +32°C° 0.1 mm 2 mps 756 mmHg 69%
    17:00 +30°C° 0 mm 2 mps 756 mmHg 76%
    18:00 +29°C° 0 mm 2 mps 757 mmHg 84%
    19:00 +28°C° 0 mm 1 mps 757 mmHg 92%
    20:00 +28°C° 0.1 mm 1 mps 758 mmHg 92%
    21:00 +28°C° 0.1 mm 1 mps 758 mmHg 92%
    22:00 +28°C° 0.1 mm 1 mps 759 mmHg 92%
    23:00 +28°C° 0.1 mm 1 mps 758 mmHg 90%

    21 December, Friday

    Time Temperature Precipitation Wind Pressure Humidity
    00:00 +28°C° 0.1 mm 1 mps 758 mmHg 89%
    01:00 +28°C° 0.1 mm 2 mps 758 mmHg 87%
    02:00 +27°C° 0.5 mm 2 mps 758 mmHg 87%
    03:00 +27°C° 0.5 mm 2 mps 757 mmHg 86%
    04:00 +27°C° 0.5 mm 2 mps 757 mmHg 85%
    05:00 +27°C° 0.7 mm 2 mps 758 mmHg 83%
    06:00 +27°C° 0.7 mm 2 mps 758 mmHg 81%
    07:00 +26°C° 0.7 mm 2 mps 758 mmHg 79%
    08:00 +28°C° 0.6 mm 2 mps 759 mmHg 72%
    09:00 +29°C° 0.6 mm 3 mps 759 mmHg 65%
    10:00 +30°C° 0.6 mm 3 mps 760 mmHg 58%
    11:00 +33°C° 0.3 mm 3 mps 759 mmHg 55%
    12:00 +34°C° 0.3 mm 4 mps 759 mmHg 51%
    13:00 +35°C° 0.3 mm 4 mps 758 mmHg 48%
    14:00 +35°C° 0.3 mm 4 mps 758 mmHg 49%
    15:00 +34°C° 0.3 mm 4 mps 757 mmHg 51%
    16:00 +34°C° 0.3 mm 5 mps 757 mmHg 52%
    17:00 +32°C° 0.3 mm 5 mps 758 mmHg 59%
    18:00 +29°C° 0.3 mm 4 mps 758 mmHg 66%
    19:00 +27°C° 0.3 mm 4 mps 759 mmHg 73%
    20:00 +27°C° 0.8 mm 5 mps 759 mmHg 70%
    21:00 +27°C° 0.8 mm 5 mps 759 mmHg 68%
    22:00 +26°C° 0.8 mm 5 mps 760 mmHg 65%
    23:00 +26°C° 0.7 mm 5 mps 760 mmHg 68%

    22 December, Saturday

    Time Temperature Precipitation Wind Pressure Humidity
    00:00 +26°C° 0.7 mm 5 mps 759 mmHg 72%
    01:00 +26°C° 0.7 mm 5 mps 759 mmHg 75%
    02:00 +26°C° 0.8 mm 5 mps 759 mmHg 76%
    03:00 +26°C° 0.8 mm 5 mps 758 mmHg 78%
    04:00 +26°C° 0.8 mm 5 mps 758 mmHg 79%
    05:00 +26°C° 0.6 mm 5 mps 758 mmHg 79%
    06:00 +26°C° 0.6 mm 4 mps 759 mmHg 79%
    07:00 +26°C° 0.6 mm 4 mps 759 mmHg 79%
    08:00 +28°C° 0.6 mm 5 mps 759 mmHg 72%
    09:00 +30°C° 0.6 mm 5 mps 760 mmHg 66%
    10:00 +33°C° 0.6 mm 5 mps 760 mmHg 59%
    11:00 +33°C° 0.9 mm 5 mps 759 mmHg 57%
    12:00 +34°C° 0.9 mm 5 mps 759 mmHg 55%
    13:00 +35°C° 0.9 mm 5 mps 758 mmHg 54%
    14:00 +34°C° 0.8 mm 5 mps 758 mmHg 54%
    15:00 +34°C° 0.8 mm 5 mps 757 mmHg 55%
    16:00 +33°C° 0.8 mm 5 mps 757 mmHg 56%
    17:00 +30°C° 0.5 mm 5 mps 757 mmHg 61%
    18:00 +29°C° 0.5 mm 5 mps 758 mmHg 66%
    19:00 +27°C° 0.5 mm 5 mps 758 mmHg 71%
    20:00 +27°C° 0.3 mm 5 mps 759 mmHg 71%
    21:00 +26°C° 0.3 mm 5 mps 759 mmHg 71%
    22:00 +26°C° 0.3 mm 5 mps 760 mmHg 71%
    23:00 +26°C° 0.3 mm 4 mps 759 mmHg 72%
    Show more